TimeEDT,TemperatureF,Dew PointF,Humidity,Sea Level PressureIn,VisibilityMPH,Wind Direction,Wind SpeedMPH,Gust SpeedMPH,PrecipitationIn,Events,Conditions,WindDirDegrees,DateUTC
12:53 AM,57.0,51.1,81,30.19,10.0,Calm,Calm,-,N/A,,Partly Cloudy,0,2013-03-16 04:53:00
1:53 AM,55.9,52.0,87,30.18,10.0,Calm,Calm,-,N/A,,Partly Cloudy,0,2013-03-16 05:53:00
2:53 AM,54.0,51.1,90,30.16,10.0,Calm,Calm,-,N/A,,Partly Cloudy,0,2013-03-16 06:53:00
3:53 AM,54.0,51.1,90,30.15,10.0,WNW,3.5,-,N/A,,Partly Cloudy,300,2013-03-16 07:53:00
4:53 AM,55.0,51.1,86,30.15,10.0,West,3.5,-,N/A,,Partly Cloudy,270,2013-03-16 08:53:00
5:53 AM,53.1,50.0,89,30.15,10.0,Calm,Calm,-,N/A,,Partly Cloudy,0,2013-03-16 09:53:00
6:53 AM,54.0,51.1,90,30.17,10.0,Calm,Calm,-,N/A,,Mostly Cloudy,0,2013-03-16 10:53:00
7:53 AM,52.0,48.9,89,30.18,10.0,Calm,Calm,-,N/A,,Scattered Clouds,0,2013-03-16 11:53:00
8:53 AM,60.1,54.0,80,30.20,10.0,Calm,Calm,-,N/A,,Scattered Clouds,0,2013-03-16 12:53:00
9:53 AM,68.0,50.0,52,30.19,10.0,Variable,3.5,-,N/A,,Scattered Clouds,0,2013-03-16 13:53:00
10:53 AM,69.1,48.0,47,30.20,10.0,South,5.8,-,N/A,,Scattered Clouds,170,2013-03-16 14:53:00
11:53 AM,72.0,48.0,43,30.18,10.0,SE,9.2,-,N/A,,Scattered Clouds,140,2013-03-16 15:53:00
12:53 PM,73.0,46.0,38,30.17,10.0,Variable,6.9,-,N/A,,Scattered Clouds,0,2013-03-16 16:53:00
1:53 PM,73.9,48.9,41,30.15,10.0,ESE,9.2,18.4,N/A,,Scattered Clouds,120,2013-03-16 17:53:00
2:53 PM,73.9,48.9,41,30.12,10.0,SE,12.7,21.9,N/A,,Scattered Clouds,130,2013-03-16 18:53:00
3:53 PM,73.0,50.0,44,30.10,10.0,SE,17.3,23.0,N/A,,Scattered Clouds,130,2013-03-16 19:53:00
4:53 PM,73.0,50.0,44,30.09,10.0,ESE,16.1,-,N/A,,Scattered Clouds,110,2013-03-16 20:53:00
5:53 PM,72.0,51.1,48,30.09,10.0,SE,16.1,-,N/A,,Scattered Clouds,140,2013-03-16 21:53:00
6:53 PM,70.0,50.0,49,30.10,10.0,SE,12.7,-,N/A,,Partly Cloudy,130,2013-03-16 22:53:00
7:53 PM,69.1,52.0,54,30.10,10.0,SSE,10.4,-,N/A,,Partly Cloudy,150,2013-03-16 23:53:00
8:53 PM,66.9,52.0,59,30.12,10.0,South,6.9,-,N/A,,Partly Cloudy,170,2013-03-17 00:53:00
9:53 PM,66.9,53.1,61,30.13,10.0,SSE,6.9,-,N/A,,Partly Cloudy,160,2013-03-17 01:53:00
10:53 PM,64.9,53.1,65,30.14,10.0,SSW,3.5,-,N/A,,Partly Cloudy,200,2013-03-17 02:53:00
11:53 PM,63.0,53.1,70,30.14,10.0,SW,3.5,-,N/A,,Partly Cloudy,220,2013-03-17 03:53:00